Location: Praha
(50.0830°N, 14.4670°E)
Time: 00:46:21
(UTC+02:00)

ISS - Pass Details

Date: 21 September 2023
Orbit: 413 x 422 km, 51.6° (Epoch: 25 September)

Event Time Altitude Azimuth Distance (km) Brightness Sun altitude
Rises 20:48:58 0° 272° (W) 2,351 1.4 -17.3°
Reaches altitude 10° 20:51:04 10° 276° (W) 1,489 0.2 -17.6°
Maximum altitude 20:54:24 64° 358° (N) 464 -3.5 -18.1°
Enters shadow 20:55:07 48° 56° (ENE) 556 -3.4 -18.2°
